START_TIME,STEP,MOV.,H8,t_acc.,H43,t_acc.,M25,t_acc.,H9,t_acc.
1979-07-07 18:00:30.100 ,1,0,0.,12.0,0.,12.0,0.,12.0,0.,12.0
1979-07-07 18:00:42.100 ,1,0,1.,12.0,0.,12.0,0.,12.0,0.,12.0
1979-07-07 18:00:54.100 ,0,0,0.,12.0,0.,12.0,0.,12.0,0.,12.0
1979-07-07 18:01:06.100 ,0,0,0.,12.0,0.,12.0,0.,12.0,0.,12.0
1979-07-07 18:01:18.100 ,0,0,2.,12.0,0.,12.0,0.,12.0,0.,12.0
1979-07-07 18:01:30.100 ,0,0,0.,12.0,0.,12.0,0.,12.0,0.,12.0
1979-07-07 18:01:42.100 ,0,0,2.,12.0,0.,12.0,0.,12.0,0.,12.0
1979-07-07 18:01:54.100 ,0,0,0.,12.0,0.,12.0,0.,12.0,0.,12.0
1979-07-07 18:02:06.100 ,0,0,0.,12.0,0.,12.0,0.,12.0,0.,12.0
1979-07-07 18:02:18.100 ,0,0,0.,12.0,0.,12.0,0.,12.0,0.,12.0
1979-07-07 18:02:30.100 ,1,0,0.,12.0,0.,12.0,0.,12.0,0.,12.0
1979-07-07 18:02:42.100 ,1,0,0.,12.0,0.,12.0,0.,12.0,0.,12.0
1979-07-07 18:02:54.100 ,0,0,0.,12.0,0.,12.0,0.,12.0,0.,12.0
1979-07-07 18:03:06.100 ,0,0,0.,12.0,0.,12.0,0.,12.0,0.,12.0
1979-07-07 18:09:12.700 ,0,0,,0,,0,,0,,0
1979-07-07 18:09:24.700 ,0,0,0.,12.0,0.,12.0,0.,12.0,0.,12.0
1979-07-07 18:09:18.100 ,0,0,0.,12.0,0.,12.0,0.,12.0,0.,12.0
1979-07-07 18:09:30.100 ,0,0,1.,12.0,0.,12.0,0.,12.0,0.,12.0
1979-07-07 18:09:42.100 ,5,0,0.,12.0,0.,12.0,0.,12.0,0.,12.0
1979-07-07 18:09:54.100 ,5,0,0.,12.0,0.,12.0,0.,12.0,0.,12.0
1979-07-07 18:10:06.100 ,5,0,0.,12.0,0.,12.0,0.,12.0,0.,12.0
1979-07-07 18:10:18.100 ,5,0,0.,12.0,0.,12.0,0.,12.0,0.,12.0
1979-07-07 18:10:30.100 ,4,0,0.,12.0,0.,12.0,0.,12.0,0.,12.0
1979-07-07 18:10:42.100 ,4,0,0.,12.0,0.,12.0,0.,12.0,0.,12.0
1979-07-07 18:10:54.100 ,4,0,0.,12.0,0.,12.0,0.,12.0,0.,12.0
1979-07-07 18:11:06.100 ,4,0,0.,12.0,0.,12.0,0.,12.0,0.,12.0
1979-07-07 18:11:18.100 ,3,0,0.,12.0,0.,12.0,0.,12.0,0.,12.0
1979-07-07 18:11:30.100 ,3,0,0.,12.0,0.,12.0,0.,12.0,0.,12.0
1979-07-07 18:11:42.100 ,3,0,0.,12.0,0.,12.0,0.,12.0,0.,12.0
1979-07-07 18:11:54.100 ,3,0,0.,12.0,0.,12.0,0.,12.0,0.,12.0
1979-07-07 18:12:06.100 ,2,0,0.,12.0,0.,12.0,0.,12.0,0.,12.0
1979-07-07 18:12:18.100 ,2,0,0.,12.0,0.,12.0,0.,12.0,0.,12.0
1979-07-07 18:12:30.100 ,2,0,0.,12.0,0.,12.0,0.,12.0,0.,12.0
1979-07-07 18:12:42.100 ,2,0,0.,12.0,0.,12.0,0.,12.0,0.,12.0
1979-07-07 18:12:54.100 ,1,0,1.,12.0,0.,12.0,0.,12.0,0.,12.0
1979-07-07 18:13:06.100 ,1,0,0.,12.0,0.,12.0,0.,12.0,0.,12.0
1979-07-07 18:13:18.100 ,1,0,0.,12.0,0.,12.0,0.,12.0,0.,12.0
1979-07-07 18:13:30.100 ,1,0,0.,12.0,0.,12.0,0.,12.0,0.,12.0
1979-07-07 18:13:42.100 ,0,0,0.,12.0,0.,12.0,0.,12.0,0.,12.0
1979-07-07 18:13:54.100 ,0,0,0.,12.0,0.,12.0,0.,12.0,0.,12.0
1979-07-07 18:14:06.100 ,0,0,0.,12.0,1.,12.0,0.,12.0,0.,12.0
1979-07-07 18:14:18.100 ,0,0,0.,12.0,0.,12.0,0.,12.0,0.,12.0
1979-07-07 18:14:30.100 ,0,0,0.,12.0,0.,12.0,0.,12.0,0.,12.0
1979-07-07 18:14:42.100 ,0,0,0.,12.0,0.,12.0,0.,12.0,0.,12.0
1979-07-07 18:14:54.100 ,0,0,0.,12.0,0.,12.0,0.,12.0,0.,12.0
1979-07-07 18:15:06.100 ,0,0,1.,12.0,0.,12.0,0.,12.0,0.,12.0
1979-07-07 18:15:18.100 ,1,0,0.,12.0,0.,12.0,0.,12.0,0.,12.0
1979-07-07 18:15:30.100 ,1,0,0.,12.0,0.,12.0,0.,12.0,0.,12.0
1979-07-07 18:15:42.100 ,1,0,0.,12.0,0.,12.0,0.,12.0,0.,12.0
1979-07-07 18:15:54.100 ,1,0,0.,12.0,0.,12.0,0.,12.0,0.,12.0
1979-07-07 18:16:06.100 ,2,0,0.,12.0,0.,12.0,0.,12.0,0.,12.0
1979-07-07 18:16:18.100 ,2,0,1.,12.0,0.,12.0,0.,12.0,0.,12.0
1979-07-07 18:16:30.100 ,2,0,0.,12.0,0.,12.0,0.,12.0,0.,12.0
1979-07-07 18:16:42.100 ,2,0,0.,12.0,0.,12.0,0.,12.0,0.,12.0
1979-07-07 18:16:54.100 ,3,0,0.,12.0,0.,12.0,0.,12.0,0.,12.0
1979-07-07 18:17:06.100 ,3,0,0.,12.0,0.,12.0,0.,12.0,0.,12.0
1979-07-07 18:17:18.100 ,3,0,0.,12.0,0.,12.0,0.,12.0,0.,12.0
1979-07-07 18:17:30.100 ,3,0,0.,12.0,0.,12.0,0.,12.0,0.,12.0
1979-07-07 18:17:42.100 ,4,0,0.,12.0,0.,12.0,0.,12.0,0.,12.0
1979-07-07 18:17:54.100 ,4,0,1.,12.0,0.,12.0,0.,12.0,0.,12.0
1979-07-07 18:18:06.100 ,4,0,0.,12.0,0.,12.0,0.,12.0,0.,12.0
1979-07-07 18:18:18.100 ,4,0,0.,12.0,0.,12.0,0.,12.0,0.,12.0
1979-07-07 18:18:30.100 ,5,0,0.,12.0,0.,12.0,0.,12.0,0.,12.0
1979-07-07 18:18:42.100 ,5,0,0.,12.0,0.,12.0,0.,12.0,0.,12.0
1979-07-07 18:18:54.100 ,5,0,1.,12.0,0.,12.0,0.,12.0,0.,12.0
1979-07-07 18:19:06.100 ,5,0,0.,12.0,0.,12.0,0.,12.0,0.,12.0
1979-07-07 18:19:18.100 ,6,0,0.,12.0,0.,12.0,0.,12.0,0.,12.0
1979-07-07 18:19:30.100 ,6,0,0.,12.0,0.,12.0,0.,12.0,0.,12.0
1979-07-07 18:19:42.100 ,6,0,0.,12.0,0.,12.0,0.,12.0,0.,12.0
1979-07-07 18:19:54.100 ,6,0,0.,12.0,0.,12.0,0.,12.0,0.,12.0
1979-07-07 18:20:06.100 ,7,0,0.,12.0,0.,12.0,0.,12.0,0.,12.0
1979-07-07 18:20:18.100 ,7,0,0.,12.0,0.,12.0,0.,12.0,0.,12.0
1979-07-07 18:20:30.100 ,7,0,0.,12.0,0.,12.0,0.,12.0,0.,12.0
1979-07-07 18:20:42.100 ,7,0,0.,12.0,0.,12.0,0.,12.0,0.,12.0
1979-07-07 18:20:54.100 ,7,0,0.,12.0,0.,12.0,0.,12.0,0.,12.0
1979-07-07 18:21:06.100 ,7,0,0.,12.0,0.,12.0,0.,12.0,0.,12.0
1979-07-07 18:21:18.100 ,7,0,0.,12.0,0.,12.0,0.,12.0,0.,12.0
1979-07-07 18:21:30.100 ,7,0,0.,12.0,0.,12.0,0.,12.0,0.,12.0
1979-07-07 18:21:42.100 ,6,0,0.,12.0,0.,12.0,0.,12.0,0.,12.0
1979-07-07 18:21:54.100 ,6,0,0.,12.0,0.,12.0,0.,12.0,0.,12.0
1979-07-07 18:22:06.100 ,6,0,0.,12.0,0.,12.0,0.,12.0,0.,12.0
1979-07-07 18:22:18.100 ,6,0,0.,12.0,0.,12.0,0.,12.0,0.,12.0
1979-07-07 18:22:30.100 ,5,0,0.,12.0,0.,12.0,0.,12.0,0.,12.0
1979-07-07 18:22:42.100 ,5,0,0.,12.0,0.,12.0,0.,12.0,0.,12.0
1979-07-07 18:22:54.100 ,5,0,0.,12.0,0.,12.0,0.,12.0,0.,12.0
1979-07-07 18:23:06.100 ,5,0,0.,12.0,0.,12.0,0.,12.0,0.,12.0
1979-07-07 18:23:18.100 ,4,0,0.,12.0,0.,12.0,0.,12.0,0.,12.0
1979-07-07 18:23:30.100 ,4,0,0.,12.0,0.,12.0,0.,12.0,0.,12.0
1979-07-07 18:23:42.100 ,4,0,0.,12.0,0.,12.0,0.,12.0,0.,12.0
1979-07-07 18:23:54.100 ,4,0,0.,12.0,0.,12.0,0.,12.0,0.,12.0
1979-07-07 18:24:06.100 ,3,0,1.,12.0,0.,12.0,0.,12.0,0.,12.0
1979-07-07 18:24:18.100 ,3,0,0.,12.0,0.,12.0,0.,12.0,0.,12.0
1979-07-07 18:24:30.100 ,3,0,0.,12.0,0.,12.0,0.,12.0,0.,12.0
1979-07-07 18:24:42.100 ,3,0,1.,12.0,0.,12.0,0.,12.0,0.,12.0
1979-07-07 18:24:54.100 ,2,0,0.,12.0,0.,12.0,0.,12.0,0.,12.0
1979-07-07 18:25:06.100 ,2,0,0.,12.0,0.,12.0,0.,12.0,0.,12.0
1979-07-07 18:25:18.100 ,2,0,0.,12.0,0.,12.0,0.,12.0,0.,12.0
1979-07-07 18:25:30.100 ,2,0,0.,12.0,0.,12.0,0.,12.0,0.,12.0
1979-07-07 18:25:42.100 ,1,0,0.,12.0,0.,12.0,0.,12.0,0.,12.0
1979-07-07 18:25:54.100 ,1,0,0.,12.0,0.,12.0,0.,12.0,0.,12.0
1979-07-07 18:26:06.100 ,1,0,0.,12.0,0.,12.0,0.,12.0,0.,12.0
1979-07-07 18:26:18.100 ,1,0,0.,12.0,1.,12.0,0.,12.0,0.,12.0
1979-07-07 18:26:30.100 ,0,0,0.,12.0,0.,12.0,0.,12.0,0.,12.0
1979-07-07 18:26:42.100 ,0,0,0.,12.0,0.,12.0,0.,12.0,0.,12.0
1979-07-07 18:26:54.100 ,0,0,0.,12.0,0.,12.0,0.,12.0,0.,12.0
1979-07-07 18:27:06.100 ,0,0,0.,12.0,0.,12.0,0.,12.0,0.,12.0
1979-07-07 18:27:18.100 ,0,0,0.,12.0,0.,12.0,0.,12.0,0.,12.0
1979-07-07 18:27:30.100 ,0,0,1.,12.0,0.,12.0,0.,12.0,0.,12.0
1979-07-07 18:27:42.100 ,0,0,0.,12.0,0.,12.0,0.,12.0,0.,12.0
1979-07-07 18:27:54.100 ,0,0,0.,12.0,0.,12.0,0.,12.0,0.,12.0
1979-07-07 18:28:06.100 ,1,0,0.,12.0,0.,12.0,0.,12.0,0.,12.0
1979-07-07 18:28:18.100 ,1,0,0.,12.0,0.,12.0,0.,12.0,0.,12.0
1979-07-07 18:28:30.100 ,1,0,0.,12.0,0.,12.0,0.,12.0,0.,12.0
1979-07-07 18:28:42.100 ,1,0,0.,12.0,0.,12.0,0.,12.0,0.,12.0
1979-07-07 18:28:54.100 ,2,0,0.,12.0,0.,12.0,0.,12.0,0.,12.0
1979-07-07 18:29:06.100 ,2,0,0.,12.0,0.,12.0,0.,12.0,0.,12.0
1979-07-07 18:29:18.100 ,2,0,0.,12.0,0.,12.0,0.,12.0,0.,12.0
1979-07-07 18:29:30.100 ,2,0,0.,12.0,0.,12.0,0.,12.0,0.,12.0
1979-07-07 18:29:42.100 ,3,0,0.,12.0,0.,12.0,0.,12.0,0.,12.0
1979-07-07 18:29:54.100 ,3,0,0.,12.0,0.,12.0,0.,12.0,0.,12.0
1979-07-07 18:30:06.100 ,3,0,0.,12.0,0.,12.0,0.,12.0,0.,12.0
1979-07-07 18:30:18.100 ,3,0,0.,12.0,0.,12.0,0.,12.0,0.,12.0
1979-07-07 18:30:30.100 ,4,0,0.,12.0,0.,12.0,0.,12.0,0.,12.0
1979-07-07 18:30:42.100 ,4,0,0.,12.0,0.,12.0,0.,12.0,0.,12.0
1979-07-07 18:30:54.100 ,4,0,0.,12.0,0.,12.0,0.,12.0,0.,12.0
1979-07-07 18:31:06.100 ,4,0,0.,12.0,0.,12.0,0.,12.0,0.,12.0
1979-07-07 18:31:18.100 ,5,0,0.,12.0,0.,12.0,0.,12.0,0.,12.0
1979-07-07 18:31:30.100 ,5,0,1.,12.0,0.,12.0,0.,12.0,0.,12.0
1979-07-07 18:31:42.100 ,5,0,0.,12.0,0.,12.0,0.,12.0,0.,12.0
1979-07-07 18:31:54.100 ,5,0,0.,12.0,0.,12.0,0.,12.0,0.,12.0
1979-07-07 18:32:06.100 ,6,0,0.,12.0,0.,12.0,0.,12.0,0.,12.0
1979-07-07 18:32:18.100 ,6,0,0.,12.0,0.,12.0,0.,12.0,0.,12.0
1979-07-07 18:32:30.100 ,6,0,0.,12.0,0.,12.0,0.,12.0,0.,12.0
1979-07-07 18:32:42.100 ,6,0,0.,12.0,0.,12.0,0.,12.0,0.,12.0
1979-07-07 18:32:54.100 ,7,0,0.,12.0,0.,12.0,0.,12.0,0.,12.0
1979-07-07 18:33:06.100 ,7,0,0.,12.0,0.,12.0,0.,12.0,0.,12.0
1979-07-07 18:33:18.100 ,7,0,0.,12.0,0.,12.0,0.,12.0,0.,12.0
1979-07-07 18:33:30.100 ,7,0,0.,12.0,0.,12.0,0.,12.0,0.,12.0
1979-07-07 18:33:42.100 ,7,0,0.,12.0,0.,12.0,0.,12.0,0.,12.0
1979-07-07 18:33:54.100 ,7,0,0.,12.0,0.,12.0,0.,12.0,0.,12.0
1979-07-07 18:34:06.100 ,7,0,0.,12.0,0.,12.0,0.,12.0,0.,12.0
1979-07-07 18:34:18.100 ,7,0,0.,12.0,0.,12.0,0.,12.0,0.,12.0
1979-07-07 18:34:30.100 ,6,0,0.,12.0,1.,12.0,0.,12.0,0.,12.0
1979-07-07 18:34:42.100 ,6,0,0.,12.0,0.,12.0,0.,12.0,0.,12.0
1979-07-07 18:34:54.100 ,6,0,0.,12.0,0.,12.0,0.,12.0,0.,12.0
1979-07-07 18:35:06.100 ,6,0,0.,12.0,1.,12.0,0.,12.0,0.,12.0
1979-07-07 18:35:18.100 ,5,0,0.,12.0,0.,12.0,0.,12.0,0.,12.0
1979-07-07 18:35:30.100 ,5,0,0.,12.0,0.,12.0,0.,12.0,0.,12.0
1979-07-07 18:35:42.100 ,5,0,0.,12.0,0.,12.0,0.,12.0,0.,12.0
1979-07-07 18:35:54.100 ,5,0,0.,12.0,0.,12.0,0.,12.0,0.,12.0
1979-07-07 18:36:06.100 ,4,0,0.,12.0,0.,12.0,0.,12.0,0.,12.0
1979-07-07 18:36:18.100 ,4,0,0.,12.0,0.,12.0,0.,12.0,0.,12.0
1979-07-07 18:36:30.100 ,4,0,2.,12.0,0.,12.0,0.,12.0,0.,12.0
1979-07-07 18:36:42.100 ,4,0,2.,12.0,0.,12.0,0.,12.0,0.,12.0
1979-07-07 18:36:54.100 ,3,0,1.,12.0,0.,12.0,0.,12.0,0.,12.0
1979-07-07 18:37:06.100 ,3,0,0.,12.0,0.,12.0,0.,12.0,0.,12.0
1979-07-07 18:37:18.100 ,3,0,0.,12.0,0.,12.0,0.,12.0,0.,12.0
1979-07-07 18:37:30.100 ,3,0,1.,12.0,0.,12.0,0.,12.0,0.,12.0
1979-07-07 18:37:42.100 ,2,0,0.,12.0,0.,12.0,0.,12.0,0.,12.0
1979-07-07 18:37:54.100 ,2,0,0.,12.0,0.,12.0,0.,12.0,0.,12.0
1979-07-07 18:38:06.100 ,2,0,1.,12.0,0.,12.0,0.,12.0,0.,12.0
1979-07-07 18:38:18.100 ,2,0,0.,12.0,0.,12.0,0.,12.0,0.,12.0
1979-07-07 18:38:30.100 ,1,0,2.,12.0,0.,12.0,0.,12.0,0.,12.0
1979-07-07 18:38:42.100 ,1,0,0.,12.0,0.,12.0,0.,12.0,0.,12.0
1979-07-07 18:38:54.100 ,1,0,0.,12.0,0.,12.0,0.,12.0,0.,12.0
1979-07-07 18:39:06.100 ,1,0,0.,12.0,0.,12.0,0.,12.0,0.,12.0
1979-07-07 18:39:18.100 ,0,0,0.,12.0,0.,12.0,0.,12.0,0.,12.0
1979-07-07 18:39:30.100 ,0,0,0.,12.0,0.,12.0,0.,12.0,0.,12.0
1979-07-07 18:39:42.100 ,0,0,1.,12.0,0.,12.0,0.,12.0,0.,12.0
1979-07-07 18:39:54.100 ,0,0,0.,12.0,1.,12.0,0.,12.0,0.,12.0
1979-07-07 18:40:06.100 ,0,0,1.,12.0,0.,12.0,0.,12.0,0.,12.0
1979-07-07 18:40:18.100 ,0,0,1.,12.0,0.,12.0,0.,12.0,0.,12.0
1979-07-07 18:40:30.100 ,0,0,0.,12.0,0.,12.0,0.,12.0,0.,12.0
1979-07-07 18:40:42.100 ,0,0,0.,12.0,0.,12.0,0.,12.0,0.,12.0
1979-07-07 18:40:54.090 ,1,0,0.,12.0,0.,12.0,0.,12.0,0.,12.0
1979-07-07 18:41:06.090 ,1,0,0.,12.0,0.,12.0,0.,12.0,0.,12.0
1979-07-07 18:41:18.090 ,1,0,0.,12.0,0.,12.0,0.,12.0,0.,12.0
1979-07-07 18:41:30.090 ,1,0,0.,12.0,0.,12.0,0.,12.0,0.,12.0
1979-07-07 18:41:42.090 ,2,0,1.,12.0,0.,12.0,0.,12.0,0.,12.0
1979-07-07 18:41:54.090 ,2,0,0.,12.0,0.,12.0,0.,12.0,0.,12.0
1979-07-07 18:42:06.090 ,2,0,0.,12.0,0.,12.0,0.,12.0,0.,12.0
1979-07-07 18:42:18.090 ,2,0,0.,12.0,0.,12.0,0.,12.0,0.,12.0
1979-07-07 18:42:30.090 ,3,0,0.,12.0,0.,12.0,0.,12.0,0.,12.0
1979-07-07 18:42:42.090 ,3,0,1.,12.0,0.,12.0,0.,12.0,0.,12.0
1979-07-07 18:42:54.090 ,3,0,0.,12.0,0.,12.0,0.,12.0,0.,12.0
1979-07-07 18:43:06.090 ,3,0,0.,12.0,0.,12.0,0.,12.0,0.,12.0
1979-07-07 18:43:18.090 ,4,0,0.,12.0,0.,12.0,0.,12.0,0.,12.0
1979-07-07 18:43:30.090 ,4,0,1.,12.0,0.,12.0,0.,12.0,0.,12.0
1979-07-07 18:43:42.090 ,4,0,2.,12.0,0.,12.0,0.,12.0,0.,12.0
1979-07-07 18:43:54.090 ,4,0,0.,12.0,0.,12.0,0.,12.0,0.,12.0
1979-07-07 18:44:06.090 ,5,0,0.,12.0,0.,12.0,0.,12.0,0.,12.0
1979-07-07 18:44:18.090 ,5,0,0.,12.0,0.,12.0,0.,12.0,0.,12.0
1979-07-07 18:44:30.090 ,5,0,1.,12.0,0.,12.0,0.,12.0,0.,12.0
1979-07-07 18:44:42.090 ,5,0,1.,12.0,0.,12.0,0.,12.0,0.,12.0
1979-07-07 18:44:54.090 ,6,0,0.,12.0,0.,12.0,0.,12.0,0.,12.0
1979-07-07 18:45:06.090 ,6,0,0.,12.0,0.,12.0,0.,12.0,0.,12.0
1979-07-07 18:45:18.090 ,6,0,0.,12.0,0.,12.0,0.,12.0,0.,12.0
1979-07-07 18:45:30.090 ,6,0,0.,12.0,0.,12.0,0.,12.0,0.,12.0
1979-07-07 18:45:42.090 ,7,0,0.,12.0,0.,12.0,0.,12.0,0.,12.0
1979-07-07 18:45:54.090 ,7,0,0.,12.0,0.,12.0,0.,12.0,0.,12.0
1979-07-07 18:46:06.090 ,7,0,0.,12.0,0.,12.0,0.,12.0,0.,12.0
1979-07-07 18:46:18.090 ,7,0,0.,12.0,0.,12.0,0.,12.0,0.,12.0
1979-07-07 18:47:18.090 ,0,0,0.,12.0,0.,12.0,0.,12.0,0.,12.0
1979-07-07 18:47:30.090 ,0,0,0.,12.0,0.,12.0,0.,12.0,0.,12.0
1979-07-07 18:47:42.090 ,0,0,1.,12.0,0.,12.0,0.,12.0,0.,12.0
1979-07-07 18:47:54.090 ,0,0,1.,12.0,0.,12.0,0.,12.0,0.,12.0
1979-07-07 18:48:06.090 ,5,0,0.,12.0,0.,12.0,0.,12.0,0.,12.0
1979-07-07 18:48:18.090 ,5,0,0.,12.0,0.,12.0,0.,12.0,0.,12.0
1979-07-07 18:48:30.090 ,5,0,0.,12.0,0.,12.0,0.,12.0,0.,12.0
1979-07-07 18:48:42.090 ,5,0,1.,12.0,0.,12.0,0.,12.0,0.,12.0
1979-07-07 18:48:54.090 ,4,0,0.,12.0,0.,12.0,0.,12.0,0.,12.0
1979-07-07 18:49:06.090 ,4,0,0.,12.0,0.,12.0,0.,12.0,0.,12.0
1979-07-07 18:49:18.090 ,4,0,3.,12.0,0.,12.0,0.,12.0,0.,12.0
1979-07-07 18:49:30.090 ,4,0,0.,12.0,0.,12.0,0.,12.0,0.,12.0
1979-07-07 18:49:42.090 ,3,0,0.,12.0,0.,12.0,0.,12.0,0.,12.0
1979-07-07 18:49:54.090 ,3,0,0.,12.0,0.,12.0,0.,12.0,0.,12.0
1979-07-07 18:50:06.090 ,3,0,0.,12.0,0.,12.0,0.,12.0,0.,12.0
1979-07-07 18:50:18.090 ,3,0,1.,12.0,0.,12.0,0.,12.0,0.,12.0
1979-07-07 18:50:30.090 ,2,0,0.,12.0,0.,12.0,0.,12.0,0.,12.0
1979-07-07 18:50:42.090 ,2,0,0.,12.0,0.,12.0,0.,12.0,0.,12.0
1979-07-07 18:50:54.090 ,2,0,1.,12.0,0.,12.0,0.,12.0,0.,12.0
1979-07-07 18:51:06.090 ,2,0,1.,12.0,0.,12.0,0.,12.0,0.,12.0
1979-07-07 18:51:18.090 ,1,0,0.,12.0,0.,12.0,0.,12.0,0.,12.0
1979-07-07 18:51:30.090 ,1,0,1.,12.0,0.,12.0,0.,12.0,0.,12.0
1979-07-07 18:51:42.090 ,1,0,0.,12.0,0.,12.0,0.,12.0,0.,12.0
1979-07-07 18:51:54.090 ,1,0,0.,12.0,0.,12.0,0.,12.0,0.,12.0
1979-07-07 18:52:06.090 ,0,0,1.,12.0,0.,12.0,0.,12.0,0.,12.0
1979-07-07 18:52:18.090 ,0,0,0.,12.0,0.,12.0,0.,12.0,0.,12.0
1979-07-07 18:52:30.090 ,0,0,1.,12.0,0.,12.0,0.,12.0,0.,12.0
1979-07-07 18:52:42.090 ,0,0,1.,12.0,0.,12.0,0.,12.0,0.,12.0
1979-07-07 18:52:54.090 ,0,0,0.,12.0,0.,12.0,0.,12.0,0.,12.0
1979-07-07 18:53:06.090 ,0,0,2.,12.0,0.,12.0,0.,12.0,0.,12.0
1979-07-07 18:53:18.090 ,0,0,0.,12.0,0.,12.0,0.,12.0,0.,12.0
1979-07-07 18:53:30.090 ,0,0,0.,12.0,0.,12.0,0.,12.0,0.,12.0
1979-07-07 18:53:42.090 ,1,0,1.,12.0,0.,12.0,0.,12.0,0.,12.0
1979-07-07 18:53:54.090 ,1,0,0.,12.0,0.,12.0,0.,12.0,0.,12.0
1979-07-07 18:54:06.090 ,1,0,2.,12.0,0.,12.0,0.,12.0,0.,12.0
1979-07-07 18:54:18.090 ,1,0,2.,12.0,0.,12.0,0.,12.0,0.,12.0
1979-07-07 18:54:30.090 ,2,0,0.,12.0,0.,12.0,0.,12.0,0.,12.0
1979-07-07 18:54:42.090 ,2,0,0.,12.0,0.,12.0,0.,12.0,0.,12.0
1979-07-07 18:54:54.090 ,2,0,0.,12.0,0.,12.0,0.,12.0,0.,12.0
1979-07-07 18:55:06.090 ,2,0,1.,12.0,0.,12.0,0.,12.0,0.,12.0
1979-07-07 18:55:18.090 ,3,0,1.,12.0,0.,12.0,0.,12.0,0.,12.0
1979-07-07 18:55:30.090 ,3,0,0.,12.0,0.,12.0,0.,12.0,0.,12.0
1979-07-07 18:55:42.090 ,3,0,0.,12.0,0.,12.0,0.,12.0,0.,12.0
1979-07-07 18:55:54.090 ,3,0,1.,12.0,0.,12.0,0.,12.0,0.,12.0
1979-07-07 18:56:06.090 ,4,0,0.,12.0,0.,12.0,0.,12.0,0.,12.0
1979-07-07 18:56:18.090 ,4,0,2.,12.0,0.,12.0,0.,12.0,0.,12.0
1979-07-07 18:56:30.090 ,4,0,0.,12.0,0.,12.0,0.,12.0,0.,12.0
1979-07-07 18:56:42.090 ,4,0,0.,12.0,0.,12.0,0.,12.0,0.,12.0
1979-07-07 18:56:54.090 ,5,0,0.,12.0,0.,12.0,0.,12.0,0.,12.0
1979-07-07 18:57:06.090 ,5,0,2.,12.0,0.,12.0,0.,12.0,0.,12.0
1979-07-07 18:57:18.090 ,5,0,0.,12.0,0.,12.0,0.,12.0,0.,12.0
1979-07-07 18:57:30.090 ,5,0,1.,12.0,0.,12.0,0.,12.0,0.,12.0
1979-07-07 18:57:42.090 ,6,0,1.,12.0,0.,12.0,0.,12.0,0.,12.0
1979-07-07 18:57:54.090 ,6,0,0.,12.0,0.,12.0,0.,12.0,0.,12.0
1979-07-07 18:58:06.090 ,6,0,1.,12.0,0.,12.0,0.,12.0,0.,12.0
1979-07-07 18:58:18.090 ,6,0,0.,12.0,0.,12.0,0.,12.0,0.,12.0
1979-07-07 18:58:30.090 ,7,0,1.,12.0,0.,12.0,0.,12.0,0.,12.0
1979-07-07 18:58:42.090 ,7,0,0.,12.0,0.,12.0,0.,12.0,0.,12.0
1979-07-07 18:58:54.090 ,7,0,0.,12.0,0.,12.0,0.,12.0,0.,12.0
1979-07-07 18:59:06.090 ,7,0,0.,12.0,0.,12.0,0.,12.0,0.,12.0
1979-07-07 18:59:18.090 ,7,0,0.,12.0,0.,12.0,0.,12.0,0.,12.0
1979-07-07 18:59:30.090 ,7,0,0.,12.0,0.,12.0,0.,12.0,0.,12.0
1979-07-07 18:59:42.090 ,7,0,0.,12.0,0.,12.0,0.,12.0,0.,12.0
1979-07-07 18:59:54.090 ,7,0,0.,12.0,0.,12.0,0.,12.0,0.,12.0
1979-07-07 19:00:06.090 ,6,0,0.,12.0,0.,12.0,0.,12.0,0.,12.0
1979-07-07 19:00:18.090 ,6,0,1.,12.0,0.,12.0,0.,12.0,0.,12.0
1979-07-07 19:00:30.100 ,6,0,1.,12.0,0.,12.0,0.,12.0,0.,12.0
1979-07-07 19:00:42.100 ,6,0,1.,12.0,0.,12.0,0.,12.0,0.,12.0
1979-07-07 19:00:54.100 ,5,0,2.,12.0,0.,12.0,0.,12.0,0.,12.0
1979-07-07 19:01:06.100 ,5,0,2.,12.0,0.,12.0,0.,12.0,0.,12.0
1979-07-07 19:01:18.100 ,5,0,1.,12.0,0.,12.0,0.,12.0,0.,12.0
1979-07-07 19:01:30.100 ,5,0,1.,12.0,0.,12.0,0.,12.0,0.,12.0
1979-07-07 19:01:42.100 ,4,0,0.,12.0,0.,12.0,0.,12.0,0.,12.0
1979-07-07 19:01:54.100 ,4,0,1.,12.0,0.,12.0,0.,12.0,0.,12.0
1979-07-07 19:02:06.100 ,4,0,1.,12.0,0.,12.0,0.,12.0,0.,12.0
1979-07-07 19:02:18.100 ,4,0,0.,12.0,0.,12.0,0.,12.0,0.,12.0
1979-07-07 19:02:30.100 ,3,0,1.,12.0,0.,12.0,0.,12.0,0.,12.0
1979-07-07 19:02:42.100 ,3,0,0.,12.0,0.,12.0,0.,12.0,0.,12.0
1979-07-07 19:02:54.100 ,3,0,0.,12.0,1.,12.0,0.,12.0,0.,12.0
1979-07-07 19:03:06.100 ,3,0,1.,12.0,0.,12.0,0.,12.0,0.,12.0
1979-07-07 19:03:18.100 ,2,0,0.,12.0,0.,12.0,0.,12.0,0.,12.0
1979-07-07 19:03:30.100 ,2,0,1.,12.0,0.,12.0,0.,12.0,0.,12.0
1979-07-07 19:03:42.100 ,2,0,0.,12.0,0.,12.0,0.,12.0,0.,12.0
1979-07-07 19:03:54.100 ,2,0,0.,12.0,0.,12.0,0.,12.0,0.,12.0
1979-07-07 19:04:06.090 ,1,0,0.,12.0,0.,12.0,0.,12.0,0.,12.0
1979-07-07 19:04:18.090 ,1,0,0.,12.0,0.,12.0,0.,12.0,0.,12.0
1979-07-07 19:04:30.090 ,1,0,0.,12.0,0.,12.0,0.,12.0,0.,12.0
1979-07-07 19:04:42.090 ,1,0,0.,12.0,0.,12.0,0.,12.0,0.,12.0
1979-07-07 19:04:54.090 ,0,0,0.,12.0,0.,12.0,0.,12.0,0.,12.0
1979-07-07 19:05:06.090 ,0,0,0.,12.0,0.,12.0,0.,12.0,0.,12.0
1979-07-07 19:05:18.090 ,0,0,0.,12.0,0.,12.0,0.,12.0,0.,12.0
1979-07-07 19:05:30.090 ,0,0,3.,12.0,0.,12.0,0.,12.0,0.,12.0
1979-07-07 19:05:42.090 ,0,0,0.,12.0,0.,12.0,0.,12.0,0.,12.0
1979-07-07 19:05:54.090 ,0,0,0.,12.0,0.,12.0,0.,12.0,0.,12.0
1979-07-07 19:06:06.090 ,0,0,0.,12.0,0.,12.0,0.,12.0,0.,12.0
1979-07-07 19:06:18.090 ,0,0,1.,12.0,0.,12.0,0.,12.0,0.,12.0
1979-07-07 19:06:30.090 ,1,0,1.,12.0,0.,12.0,0.,12.0,0.,12.0
1979-07-07 19:06:42.090 ,1,0,1.,12.0,0.,12.0,0.,12.0,0.,12.0
1979-07-07 19:06:54.090 ,1,0,0.,12.0,0.,12.0,0.,12.0,0.,12.0
1979-07-07 19:07:06.090 ,1,0,0.,12.0,0.,12.0,0.,12.0,0.,12.0
1979-07-07 19:07:18.090 ,2,0,0.,12.0,0.,12.0,0.,12.0,0.,12.0
1979-07-07 19:07:30.090 ,2,0,0.,12.0,0.,12.0,0.,12.0,0.,12.0
1979-07-07 19:07:42.090 ,2,0,0.,12.0,0.,12.0,0.,12.0,0.,12.0
1979-07-07 19:07:54.090 ,2,0,1.,12.0,0.,12.0,0.,12.0,0.,12.0
1979-07-07 19:08:06.090 ,3,0,0.,12.0,0.,12.0,0.,12.0,0.,12.0
1979-07-07 19:08:18.090 ,3,0,1.,12.0,0.,12.0,0.,12.0,0.,12.0
1979-07-07 19:08:30.090 ,3,0,0.,12.0,0.,12.0,0.,12.0,0.,12.0
1979-07-07 19:08:42.090 ,3,0,0.,12.0,0.,12.0,0.,12.0,0.,12.0
1979-07-07 19:08:54.090 ,4,0,0.,12.0,0.,12.0,0.,12.0,0.,12.0
1979-07-07 19:09:06.090 ,4,0,2.,12.0,0.,12.0,0.,12.0,0.,12.0
1979-07-07 19:09:18.090 ,4,0,1.,12.0,0.,12.0,0.,12.0,0.,12.0
1979-07-07 19:09:30.090 ,4,0,0.,12.0,0.,12.0,0.,12.0,0.,12.0
1979-07-07 19:09:42.090 ,5,0,0.,12.0,0.,12.0,0.,12.0,0.,12.0
1979-07-07 19:09:54.090 ,5,0,1.,12.0,0.,12.0,0.,12.0,0.,12.0
1979-07-07 19:10:06.090 ,5,0,0.,12.0,0.,12.0,0.,12.0,0.,12.0
1979-07-07 19:10:18.090 ,5,0,2.,12.0,0.,12.0,0.,12.0,0.,12.0
1979-07-07 19:10:30.090 ,6,0,0.,12.0,0.,12.0,0.,12.0,0.,12.0
1979-07-07 19:10:42.090 ,6,0,2.,12.0,0.,12.0,0.,12.0,0.,12.0
1979-07-07 19:10:54.090 ,6,0,0.,12.0,0.,12.0,0.,12.0,0.,12.0
1979-07-07 19:11:06.090 ,6,0,1.,12.0,0.,12.0,0.,12.0,0.,12.0
1979-07-07 19:11:18.090 ,7,0,0.,12.0,0.,12.0,0.,12.0,0.,12.0
1979-07-07 19:11:30.090 ,7,0,0.,12.0,0.,12.0,0.,12.0,0.,12.0
1979-07-07 19:11:42.090 ,7,0,0.,12.0,0.,12.0,0.,12.0,0.,12.0
1979-07-07 19:11:54.090 ,7,0,0.,12.0,0.,12.0,0.,12.0,0.,12.0
1979-07-07 19:12:06.090 ,7,0,0.,12.0,0.,12.0,0.,12.0,0.,12.0
1979-07-07 19:12:18.090 ,7,0,0.,12.0,0.,12.0,0.,12.0,0.,12.0
1979-07-07 19:12:30.090 ,7,0,0.,12.0,0.,12.0,0.,12.0,0.,12.0
1979-07-07 19:12:42.090 ,7,0,0.,12.0,0.,12.0,0.,12.0,0.,12.0
1979-07-07 19:12:54.090 ,6,0,0.,12.0,0.,12.0,0.,12.0,0.,12.0
1979-07-07 19:13:06.090 ,6,0,1.,12.0,0.,12.0,0.,12.0,0.,12.0
1979-07-07 19:13:18.090 ,6,0,2.,12.0,0.,12.0,0.,12.0,0.,12.0
1979-07-07 19:13:30.090 ,6,0,0.,12.0,0.,12.0,0.,12.0,0.,12.0
1979-07-07 19:13:42.090 ,5,0,0.,12.0,0.,12.0,0.,12.0,0.,12.0
1979-07-07 19:13:54.090 ,5,0,0.,12.0,0.,12.0,0.,12.0,0.,12.0
1979-07-07 19:14:06.090 ,5,0,2.,12.0,0.,12.0,0.,12.0,0.,12.0
1979-07-07 19:14:18.090 ,5,0,0.,12.0,0.,12.0,0.,12.0,0.,12.0
1979-07-07 19:14:30.090 ,4,0,3.,12.0,0.,12.0,0.,12.0,0.,12.0
1979-07-07 19:14:42.090 ,4,0,0.,12.0,0.,12.0,0.,12.0,0.,12.0
1979-07-07 19:14:54.090 ,4,0,2.,12.0,0.,12.0,0.,12.0,0.,12.0
1979-07-07 19:15:06.090 ,4,0,0.,12.0,0.,12.0,0.,12.0,0.,12.0
1979-07-07 19:15:18.090 ,3,0,0.,12.0,0.,12.0,0.,12.0,0.,12.0
1979-07-07 19:15:30.090 ,3,0,0.,12.0,0.,12.0,0.,12.0,0.,12.0
1979-07-07 19:15:42.090 ,3,0,0.,12.0,0.,12.0,0.,12.0,0.,12.0
1979-07-07 19:15:54.090 ,3,0,1.,12.0,0.,12.0,0.,12.0,0.,12.0
1979-07-07 19:16:54.090 ,0,0,1.,12.0,0.,12.0,0.,12.0,0.,12.0
1979-07-07 19:17:06.090 ,0,0,2.,12.0,0.,12.0,0.,12.0,0.,12.0
1979-07-07 19:17:18.090 ,0,0,1.,12.0,0.,12.0,0.,12.0,0.,12.0
1979-07-07 19:17:30.090 ,0,0,2.,12.0,0.,12.0,0.,12.0,0.,12.0
1979-07-07 19:17:18.090 ,0,0,1.,12.0,0.,12.0,0.,12.0,0.,12.0
1979-07-07 19:17:30.090 ,0,0,2.,12.0,0.,12.0,0.,12.0,0.,12.0
1979-07-07 19:17:42.090 ,0,0,1.,12.0,0.,12.0,0.,12.0,0.,12.0
1979-07-07 19:17:54.090 ,0,0,1.,12.0,0.,12.0,0.,12.0,0.,12.0
1979-07-07 19:18:06.090 ,0,0,0.,12.0,0.,12.0,0.,12.0,0.,12.0
1979-07-07 19:18:18.090 ,0,0,2.,12.0,0.,12.0,0.,12.0,0.,12.0
1979-07-07 19:18:30.090 ,0,0,2.,12.0,0.,12.0,0.,12.0,0.,12.0
1979-07-07 19:18:42.090 ,0,0,2.,12.0,0.,12.0,0.,12.0,0.,12.0
1979-07-07 19:18:54.090 ,0,0,0.,12.0,0.,12.0,0.,12.0,0.,12.0
1979-07-07 19:19:06.090 ,0,0,0.,12.0,0.,12.0,0.,12.0,0.,12.0
1979-07-07 19:19:18.090 ,1,0,2.,12.0,0.,12.0,0.,12.0,0.,12.0
1979-07-07 19:19:30.090 ,1,0,0.,12.0,0.,12.0,0.,12.0,0.,12.0
1979-07-07 19:19:42.090 ,1,0,1.,12.0,0.,12.0,0.,12.0,0.,12.0
1979-07-07 19:19:54.090 ,1,0,0.,12.0,0.,12.0,0.,12.0,0.,12.0
1979-07-07 19:20:06.090 ,2,0,1.,12.0,0.,12.0,0.,12.0,0.,12.0
1979-07-07 19:20:18.090 ,2,0,0.,12.0,0.,12.0,0.,12.0,0.,12.0
1979-07-07 19:20:30.090 ,2,0,0.,12.0,0.,12.0,0.,12.0,0.,12.0
1979-07-07 19:20:42.090 ,2,0,2.,12.0,0.,12.0,0.,12.0,0.,12.0
1979-07-07 19:20:54.090 ,3,0,0.,12.0,0.,12.0,0.,12.0,0.,12.0
1979-07-07 19:21:06.090 ,3,0,0.,12.0,0.,12.0,0.,12.0,0.,12.0
1979-07-07 19:21:18.090 ,3,0,1.,12.0,0.,12.0,0.,12.0,0.,12.0
1979-07-07 19:21:30.090 ,3,0,0.,12.0,0.,12.0,0.,12.0,0.,12.0
1979-07-07 19:21:42.090 ,4,0,1.,12.0,0.,12.0,0.,12.0,0.,12.0
1979-07-07 19:21:54.090 ,4,0,1.,12.0,0.,12.0,0.,12.0,0.,12.0
1979-07-07 19:22:06.090 ,4,0,0.,12.0,0.,12.0,0.,12.0,0.,12.0
1979-07-07 19:22:18.090 ,4,0,2.,12.0,0.,12.0,0.,12.0,0.,12.0
1979-07-07 19:22:30.090 ,5,0,1.,12.0,0.,12.0,0.,12.0,0.,12.0
1979-07-07 19:22:42.090 ,5,0,0.,12.0,0.,12.0,0.,12.0,0.,12.0
1979-07-07 19:22:54.090 ,5,0,0.,12.0,0.,12.0,0.,12.0,0.,12.0
1979-07-07 19:23:06.090 ,5,0,0.,12.0,0.,12.0,0.,12.0,0.,12.0
1979-07-07 19:23:18.090 ,6,0,2.,12.0,0.,12.0,0.,12.0,0.,12.0
1979-07-07 19:23:30.090 ,6,0,1.,12.0,0.,12.0,0.,12.0,0.,12.0
1979-07-07 19:23:42.090 ,6,0,0.,12.0,0.,12.0,0.,12.0,0.,12.0
1979-07-07 19:23:54.090 ,6,0,0.,12.0,0.,12.0,0.,12.0,0.,12.0
1979-07-07 19:24:06.090 ,7,0,1.,12.0,0.,12.0,0.,12.0,0.,12.0
1979-07-07 19:24:18.090 ,7,0,0.,12.0,0.,12.0,0.,12.0,0.,12.0